Regional Weather Roundup
Issued by NWS

Home | Current Version | Previous Version | Text Only | Print | Product List | Glossary On
Versions: 1 2 3 4 5 6 7 8 9 10 11 12 13 14 15 16 17 18 19 20 21 22 23 24 25 26
000
ASUS45 KREV 270210
RWRNV
NEVADA REGIONAL WEATHER ROUNDUP
NATIONAL WEATHER SERVICE RENO NV
700 PM PDT THU MAY 26 2016

NOTE: "FAIR" INDICATES FEW OR NO CLOUDS BELOW 12,000 FEET WITH NO
SIGNIFICANT WEATHER AND/OR OBSTRUCTIONS TO VISIBILITY.

NVZ001-003-004-270300-
WESTERN NEVADA

CITY           SKY/WX    TMP DP  RH WIND       PRES   REMARKS
RENO           PTSUNNY   71  32  23 N9        30.01S
CARSON CITY    FAIR      66  34  30 W9G16     30.04S
MINDEN         FAIR      64  41  42 W16       30.04S
SLIDE MTN        N/A     41  30  65 W13         N/A
PYRAMID LAKE     N/A     70 N/A N/A E2          N/A
FALLON         MOSUNNY   72  28  19 N3        29.98F
LOVELOCK       PTSUNNY   73  25  16 CALM      29.97S
HAWTHORNE      SUNNY     72  32  23 NW8       30.01F
$$

NVZ002-CAZ072-073-270300-
NORTHERN AND CENTRAL SIERRA

CITY           SKY/WX    TMP DP  RH WIND       PRES   REMARKS
S. LAKE TAHOE  MOSUNNY   57  38  48 VRB5      30.12R
TRUCKEE        MOSUNNY   55  39  54 W9        30.11S
SQUAW VLY 8000 NOT AVBL
SUSANVILLE     CLOUDY    72  39  30 W13G18    30.01S
BLUE CANYON    MOSUNNY   58  42  55 W6        30.13S
MAMMOTH LAKES  FAIR      59  30  33 N9        30.12S
BRIDGEPORT     PTSUNNY   56  32  40 CALM      30.09S
$$

NVZ030-031-036-270300-
NORTHERN NEVADA

CITY           SKY/WX    TMP DP  RH WIND       PRES   REMARKS
ELKO           MOSUNNY   58  42  55 E6        30.02S
WINNEMUCCA     SUNNY     68  23  18 W12       29.97F
WENDOVER       PTCLDY    64  37  36 N17       29.97R
$$

NVZ035-037-270300-
CENTRAL NEVADA

CITY           SKY/WX    TMP DP  RH WIND       PRES   REMARKS
ELY            CLEAR     58  33  39 CALM      30.04R
EUREKA           N/A     54  40  59 SE5       30.05F
$$

NVZ013-014-270300-
SOUTH CENTRAL NEVADA

CITY           SKY/WX    TMP DP  RH WIND       PRES   REMARKS
TONOPAH        MOSUNNY   64  30  27 NW16      30.02S
$$

NVZ017-020-022-270300-
SOUTHERN NEVADA

CITY           SKY/WX    TMP DP  RH WIND       PRES   REMARKS
LAS VEGAS      PTCLDY    83  30  14 W10       29.79F
N. LAS VEGAS   CLEAR     82  31  15 NW7       29.82S
NELLIS AFB     PTCLDY    84  32  15 W8        29.80S
HENDERSON      CLEAR     81  33  17 W10       29.87S
MERCURY        PTCLDY    76  30  18 CALM      29.88F
$$




USA.gov is the U.S. government's official web portal to all federal, state and local government web resources and services.